Regional Weather Roundup
Issued by NWS

Home | Current Version | Previous Version | Graphics & Text | Print | Product List | Glossary On
Versions: 1 2 3 4 5 6 7 8 9 10 11 12 13 14 15 16 17 18 19 20 21 22 23 24 25 26 27 28 29 30 31 32 33 34 35 36 37 38 39 40 41 42 43 44 45 46 47 48 49 50
000
ASUS43 KLOT 230709
RWRIL

ILLINOIS REGIONAL WEATHER ROUNDUP
NATIONAL WEATHER SERVICE CHICAGO/ROMEOVILLE IL
200 AM CDT SUN JUL 23 2017

NOTE: "FAIR" INDICATES FEW OR NO CLOUDS BELOW 12,000 FEET WITH NO
SIGNIFICANT WEATHER AND/OR OBSTRUCTIONS TO VISIBILITY.

* THESE STATIONS ARE NOT UNDER NWS QUALITY CONTROL. THEY ALSO MAY NOT
  REPORT WEATHER SUCH AS PRECIPITATION OR FOG.

ILZ001-002-007-009-015-016-024-230800-
NORTHWEST ILLINOIS

CITY           SKY/WX    TMP DP  RH WIND       PRES   REMARKS
MOLINE         PTCLDY    76  73  91 W5        29.81F
STERLING*      CLOUDY    74  73  97 SW3       29.81F
SAVANNA*       CLEAR     72  71  98 CALM      29.81F FOG
$$

ILZ003-004-008-010-011-017-018-230800-
NORTH CENTRAL ILLINOIS

CITY           SKY/WX    TMP DP  RH WIND       PRES   REMARKS
ROCKFORD       CLOUDY    76  73  91 CALM      29.82S
FREEPORT*      MOCLDY    72  72  98 W5        29.83S
ROCHELLE*      CLOUDY    73  73  99 CALM      29.82S
DE KALB*       MOCLDY    73  72  96 NW6       29.82S
PERU*          CLOUDY    67  63  87 W5        29.82S
$$

ILZ005-006-012>014-019>023-230800-
NORTHEAST ILLINOIS

CITY           SKY/WX    TMP DP  RH WIND       PRES   REMARKS
CHICAGO-OHARE  PTCLDY    73  69  87 CALM      29.79S
CHICAGO-MIDWAY PTCLDY    75  70  84 SE3       29.78F
AURORA         CLEAR     72  72 100 CALM      29.81S FOG
LANSING*       CLEAR     72  68  86 CALM      29.81S
JOLIET*        CLOUDY    76  73  91 CALM      29.79F
WAUKEGAN       CLEAR     69  69 100 CALM      29.79S FOG
DUPAGE AIRPORT CLEAR     71  70  96 W3        29.81S
WHEELING       CLEAR     73  72  96 CALM      29.81S
MORRIS*        CLOUDY    75  73  95 CALM      29.78F
ROMEOVILLE*    PTCLDY    71  68  89 CALM      29.80F
NORTHERLY ISL    N/A     72  69  90 CALM        N/A
$$

LMZ740>746-230800-
SOUTHERN LAKE MICHIGAN

STATION/POSITION SKY/WX   TEMP    WIND        PRES    VSBY  WAVE
                          AIR SEA DIR/SP/G                  HT/PER
                          (F)     (DEG/KT/KT) (MB)    (MI)  (FT/S)
SOUTHERN BUOY              70 70   CALM  /  2 1008.8          0
WILMETTE HARBOR            72 73   CALM  /  2   N/A           0
HARRISON CRIB              74     190/  5/  5   N/A
BURNHAM HARBOR             72                   N/A
CALUMET HARBOR                    180/  2/  2 1008.6F
BURNS HARBOR               74     200/  2/  4 1009.8S
MICHIGAN CITY              73     140/  3/  4   N/A
MICHIGAN CITY 6N           73 75  180/  6/  6   N/A           0
ST. JOSEPH                 73 74  180/  4/  6 1008.5          1
$$

ILZ025>027-034>036-040-047-049-050-058-095>099-230800-
WEST-CENTRAL ILLINOIS

CITY           SKY/WX    TMP DP  RH WIND       PRES   REMARKS
QUINCY         CLOUDY    79  76  90 N9        29.84S HX  83
GALESBURG*     MOCLDY    74  74  99 CALM      29.84S
MACOMB*        PTCLDY    74  73  96 CALM      29.85S FOG
JACKSONVILLE*  CLOUDY    78  77  95 CALM      29.80F HX  81
PITTSFIELD*    CLOUDY    81  78  92 NW3       29.84R HX  89
$$

ILZ028>032-037-038-041>044-048-051>054-059>061-230800-
CENTRAL ILLINOIS

CITY           SKY/WX    TMP DP  RH WIND       PRES   REMARKS
PONTIAC        CLOUDY    75  74  98 CALM      29.82S
BLOOMINGTON    MOCLDY    74  73  97 SW3       29.82F
DECATUR        CLEAR     77  76  96 N6        29.79F
PEORIA         MOCLDY    76  76 100 CALM      29.81F
LACON*         MOCLDY    75  75 100 CALM      29.80S
LINCOLN*       CLOUDY    77  77 100 CALM      29.79F
SPRINGFIELD    MOCLDY    80  79  96 CALM      29.80S HX  88
TAYLORVILLE    PTCLDY    78  77  96 N5        29.78F HX  80
$$

ILZ033-039-045-046-055>057-062-063-230800-
EAST-CENTRAL ILLINOIS

CITY           SKY/WX    TMP DP  RH WIND       PRES   REMARKS
CHAMPAIGN      CLEAR     76  74  93 NW3       29.79F
RANTOUL*       CLOUDY    79  77  94 CALM      29.79F HX  82
MATTOON        PTCLDY    75  75 100 CALM      29.78F
PARIS*         CLOUDY    73  73  99 CALM      29.78F
$$

ILZ079-100>102-230800-
SOUTHWEST ILLINOIS

CITY           SKY/WX    TMP DP  RH WIND       PRES   REMARKS
ALTON          PTCLDY    80  76  87 W3        29.79S HX  86
BELLEVILLE     PTCLDY    81  73  76 S8        29.79S HX  85
CAHOKIA*       CLEAR     85  70  60 SW5       29.78R HX  89
SPARTA*        CLEAR     84  73  67 SW7       29.81F HX  90
$$

ILZ064>066-069>071-074>076-080>082-084>086-088>090-092>094-230800-
SOUTH-CENTRAL ILLINOIS

CITY           SKY/WX    TMP DP  RH WIND       PRES   REMARKS
CARBONDALE     MOCLDY    84  76  76 SW13G22   29.81S HX  93
CAIRO*         CLEAR     82  75  78 SW10G16   29.84F HX  89
EFFINGHAM*     CLOUDY    80  75  85 SE6       29.80S HX  85
MARION         MOCLDY    86  75  70 SW12      29.81F HX  95
MT. VERNON     CLOUDY    83  75  77 SW12      29.79F HX  90
CENTRALIA*     CLOUDY    85  74  70 SW13G20   29.78S HX  93
SALEM*         MOCLDY    85  73  67 SW7       29.77F HX  92
METROPOLIS*    CLEAR     83  76  79 SW10      29.85F HX  90
$$

ILZ067-068-072-073-078-083-087-091-230800-
SOUTHEAST ILLINOIS

CITY           SKY/WX    TMP DP  RH WIND       PRES   REMARKS
LAWRENCEVILLE  TSTM      74  71  91 E8        29.82F
FLORA*         CLOUDY    85  76  74 SW8       29.77F HX  94
FAIRFIELD*     CLOUDY    82  75  78 SW5       29.77F HX  89
HARRISBURG*    MOCLDY    84  76  75 SW9       29.81F HX  93
ROBINSON*      CLOUDY    71  69  93 S5        29.81F THUNDER
CARMI*         PTCLDY    83  75  77 SW12G23   29.78F HX  91
$$

ABBREVIATIONS USED IN REMARKS
   TC - TEMPERATURE IN CELSIUS
  WCI - WIND CHILL INDEX
   HX - HEAT INDEX
  VSB - VISIBILITY
$$





USA.gov is the U.S. government's official web portal to all federal, state and local government web resources and services.